Terminal Aerodrome Forecast
Issued by NWS Tuscon, AZ

Home | Current Version | Previous Version | Text Only | Print | Product List | Glossary On
Versions: 1 2 3 4 5 6 7 8 9 10 11 12 13 14
000
FTUS45 KTWC 182300
TAFDUG
TAF
KDUG 182322Z 1900/1924 30010KT P6SM VCSH SCT100 OVC250
      TEMPO 1900/1902 VRB15G35KT 6SM -TSRA BKN080CB
     FM190600 19006KT P6SM BKN060 BKN200
     FM192000 22015G25KT P6SM VCSH BKN050 BKN100=

USA.gov is the U.S. government's official web portal to all federal, state and local government web resources and services.